Time,TemperatureF,DewpointF,PressureIn,WindDirection,WindDirectionDegrees,WindSpeedMPH,WindSpeedGustMPH,Humidity,HourlyPrecipIn,Conditions,Clouds,dailyrainin,SolarRadiationWatts/m^2,SoftwareType,DateUTC
2013-06-22 00:00:00,62.3,56.0,30.34,North,350,0.0,0.0,80,0.00,,,0.00,0,weatherlink.com 1.10,2013-06-22 04:00:00,
2013-06-22 00:15:00,62.5,57.0,30.34,North,350,0.0,0.0,81,0.00,,,0.00,0,weatherlink.com 1.10,2013-06-22 04:15:00,
2013-06-22 00:30:00,62.2,56.0,30.34,North,350,0.0,0.0,81,0.00,,,0.00,0,weatherlink.com 1.10,2013-06-22 04:30:00,
2013-06-22 00:45:00,62.1,57.0,30.33,North,350,0.0,0.0,82,0.00,,,0.00,0,weatherlink.com 1.10,2013-06-22 04:45:00,
2013-06-22 01:00:00,62.1,56.0,30.33,North,350,0.0,0.0,81,0.00,,,0.00,0,weatherlink.com 1.10,2013-06-22 05:00:00,
2013-06-22 01:15:00,61.6,56.0,30.33,North,350,0.0,0.0,83,0.00,,,0.00,0,weatherlink.com 1.10,2013-06-22 05:15:00,
2013-06-22 01:30:00,61.6,56.0,30.33,North,350,0.0,0.0,81,0.00,,,0.00,0,weatherlink.com 1.10,2013-06-22 05:30:00,
2013-06-22 01:45:00,61.7,56.0,30.34,North,350,0.0,0.0,80,0.00,,,0.00,0,weatherlink.com 1.10,2013-06-22 05:45:00,
2013-06-22 02:00:00,61.3,55.0,30.33,North,350,0.0,0.0,81,0.00,,,0.00,0,weatherlink.com 1.10,2013-06-22 06:00:00,
2013-06-22 02:15:00,61.0,55.0,30.33,North,350,0.0,0.0,81,0.00,,,0.00,0,weatherlink.com 1.10,2013-06-22 06:15:00,
2013-06-22 02:30:00,61.2,55.0,30.33,North,350,0.0,0.0,81,0.00,,,0.00,0,weatherlink.com 1.10,2013-06-22 06:30:00,
2013-06-22 02:45:00,60.7,55.0,30.33,North,350,0.0,0.0,81,0.00,,,0.00,0,weatherlink.com 1.10,2013-06-22 06:45:00,
2013-06-22 03:00:00,60.5,55.0,30.33,North,350,0.0,0.0,81,0.00,,,0.00,0,weatherlink.com 1.10,2013-06-22 07:00:00,
2013-06-22 03:15:00,60.8,55.0,30.33,North,350,0.0,0.0,80,0.00,,,0.00,0,weatherlink.com 1.10,2013-06-22 07:15:00,
2013-06-22 03:30:00,60.5,54.0,30.33,North,350,0.0,0.0,80,0.00,,,0.00,0,weatherlink.com 1.10,2013-06-22 07:30:00,
2013-06-22 03:45:00,60.2,54.0,30.32,North,350,0.0,0.0,80,0.00,,,0.00,0,weatherlink.com 1.10,2013-06-22 07:45:00,
2013-06-22 04:15:00,60.3,54.0,30.32,North,350,0.0,0.0,81,0.00,,,0.00,0,weatherlink.com 1.10,2013-06-22 08:15:00,
2013-06-22 04:30:00,59.5,54.0,30.33,North,350,0.0,0.0,83,0.00,,,0.00,0,weatherlink.com 1.10,2013-06-22 08:30:00,
2013-06-22 04:45:00,59.7,55.0,30.33,North,350,0.0,0.0,83,0.00,,,0.00,0,weatherlink.com 1.10,2013-06-22 08:45:00,
2013-06-22 05:00:00,59.8,55.0,30.33,North,350,0.0,0.0,83,0.00,,,0.00,0,weatherlink.com 1.10,2013-06-22 09:00:00,
2013-06-22 05:15:00,59.6,54.0,30.33,North,350,0.0,0.0,83,0.00,,,0.00,0,weatherlink.com 1.10,2013-06-22 09:15:00,
2013-06-22 05:30:00,59.6,54.0,30.33,North,350,0.0,0.0,81,0.00,,,0.00,7,weatherlink.com 1.10,2013-06-22 09:30:00,
2013-06-22 05:45:00,59.9,54.0,30.33,North,350,0.0,0.0,81,0.00,,,0.00,14,weatherlink.com 1.10,2013-06-22 09:45:00,
2013-06-22 06:00:00,60.1,54.0,30.33,North,350,0.0,0.0,81,0.00,,,0.00,26,weatherlink.com 1.10,2013-06-22 10:00:00,
2013-06-22 06:15:00,60.5,55.0,30.33,North,350,0.0,0.0,81,0.00,,,0.00,58,weatherlink.com 1.10,2013-06-22 10:15:00,
2013-06-22 06:30:00,60.3,55.0,30.33,North,350,0.0,0.0,83,0.00,,,0.00,91,weatherlink.com 1.10,2013-06-22 10:30:00,
2013-06-22 06:45:00,61.5,57.0,30.32,North,350,0.0,0.0,84,0.00,,,0.00,132,weatherlink.com 1.10,2013-06-22 10:45:00,
2013-06-22 07:01:00,62.3,56.0,30.32,North,350,0.0,0.0,81,0.00,,,0.00,146,weatherlink.com 1.10,2013-06-22 11:01:00,
2013-06-22 07:16:00,63.8,58.0,30.32,North,350,0.0,0.0,81,0.00,,,0.00,209,weatherlink.com 1.10,2013-06-22 11:16:00,
2013-06-22 07:31:00,66.5,59.0,30.33,North,350,0.0,0.0,76,0.00,,,0.00,258,weatherlink.com 1.10,2013-06-22 11:31:00,
2013-06-22 07:46:00,67.6,58.0,30.33,North,350,0.0,0.0,72,0.00,,,0.00,299,weatherlink.com 1.10,2013-06-22 11:46:00,
2013-06-22 08:01:00,67.3,58.0,30.32,North,350,0.0,0.0,73,0.00,,,0.00,343,weatherlink.com 1.10,2013-06-22 12:01:00,
2013-06-22 08:16:00,68.4,57.0,30.33,North,350,0.0,1.0,68,0.00,,,0.00,378,weatherlink.com 1.10,2013-06-22 12:16:00,
2013-06-22 08:31:00,70.3,59.0,30.33,NNE,17,0.0,1.0,67,0.00,,,0.00,417,weatherlink.com 1.10,2013-06-22 12:31:00,
2013-06-22 08:46:00,69.9,58.0,30.33,SE,133,0.0,1.0,66,0.00,,,0.00,452,weatherlink.com 1.10,2013-06-22 12:46:00,
2013-06-22 09:01:00,72.2,61.0,30.33,SE,134,0.0,1.0,67,0.00,,,0.00,504,weatherlink.com 1.10,2013-06-22 13:01:00,
2013-06-22 09:16:00,72.4,59.0,30.33,SE,134,0.0,1.0,64,0.00,,,0.00,550,weatherlink.com 1.10,2013-06-22 13:16:00,
2013-06-22 09:31:00,74.0,61.0,30.33,SE,132,0.0,0.0,64,0.00,,,0.00,599,weatherlink.com 1.10,2013-06-22 13:31:00,
2013-06-22 09:46:00,75.4,64.0,30.34,ESE,115,0.0,0.0,67,0.00,,,0.00,578,weatherlink.com 1.10,2013-06-22 13:46:00,
2013-06-22 10:01:00,74.4,64.0,30.34,NNE,27,0.0,0.0,69,0.00,,,0.00,552,weatherlink.com 1.10,2013-06-22 14:01:00,
2013-06-22 10:16:00,74.6,63.0,30.34,South,175,0.0,2.0,68,0.00,,,0.00,701,weatherlink.com 1.10,2013-06-22 14:16:00,
2013-06-22 10:31:00,76.7,64.0,30.34,SW,231,0.0,3.0,66,0.00,,,0.00,747,weatherlink.com 1.10,2013-06-22 14:31:00,
2013-06-22 10:46:00,76.3,63.0,30.34,NE,56,0.0,2.0,64,0.00,,,0.00,770,weatherlink.com 1.10,2013-06-22 14:46:00,
2013-06-22 11:01:00,77.2,62.0,30.34,East,92,0.0,1.0,60,0.00,,,0.00,795,weatherlink.com 1.10,2013-06-22 15:01:00,
2013-06-22 11:16:00,78.0,63.0,30.35,SSE,165,1.0,2.0,60,0.00,,,0.00,814,weatherlink.com 1.10,2013-06-22 15:16:00,
2013-06-22 11:32:00,79.3,63.0,30.35,SW,233,1.0,2.0,58,0.00,,,0.00,824,weatherlink.com 1.10,2013-06-22 15:32:00,
2013-06-22 11:47:00,79.1,63.0,30.34,SW,234,0.0,3.0,58,0.00,,,0.00,833,weatherlink.com 1.10,2013-06-22 15:47:00,
2013-06-22 12:02:00,78.8,64.0,30.34,SE,134,0.0,3.0,60,0.00,,,0.00,872,weatherlink.com 1.10,2013-06-22 16:02:00,
2013-06-22 12:17:00,79.4,64.0,30.33,ESE,110,0.0,2.0,60,0.00,,,0.00,874,weatherlink.com 1.10,2013-06-22 16:17:00,
2013-06-22 12:32:00,79.7,64.0,30.33,SE,138,0.0,2.0,60,0.00,,,0.00,872,weatherlink.com 1.10,2013-06-22 16:32:00,
2013-06-22 12:47:00,81.1,65.0,30.32,East,96,0.0,2.0,59,0.00,,,0.00,867,weatherlink.com 1.10,2013-06-22 16:47:00,
2013-06-22 13:02:00,81.4,65.0,30.31,North,5,0.0,5.0,57,0.00,,,0.00,888,weatherlink.com 1.10,2013-06-22 17:02:00,
2013-06-22 13:17:00,81.3,62.0,30.30,North,5,0.0,3.0,52,0.00,,,0.00,882,weatherlink.com 1.10,2013-06-22 17:17:00,
2013-06-22 13:32:00,80.3,62.0,30.30,East,80,1.0,2.0,53,0.00,,,0.00,895,weatherlink.com 1.10,2013-06-22 17:32:00,
2013-06-22 13:47:00,81.3,62.0,30.30,NNE,26,0.0,4.0,52,0.00,,,0.00,754,weatherlink.com 1.10,2013-06-22 17:47:00,
2013-06-22 14:02:00,80.9,63.0,30.30,SE,138,0.0,2.0,54,0.00,,,0.00,835,weatherlink.com 1.10,2013-06-22 18:02:00,
2013-06-22 14:17:00,80.5,63.0,30.29,NE,55,1.0,2.0,56,0.00,,,0.00,793,weatherlink.com 1.10,2013-06-22 18:17:00,
2013-06-22 14:32:00,81.8,64.0,30.30,North,355,0.0,1.0,55,0.00,,,0.00,619,weatherlink.com 1.10,2013-06-22 18:32:00,
2013-06-22 14:47:00,82.0,64.0,30.29,SSW,211,0.0,3.0,54,0.00,,,0.00,752,weatherlink.com 1.10,2013-06-22 18:47:00,
2013-06-22 15:02:00,80.7,61.0,30.28,SSE,168,0.0,2.0,52,0.00,,,0.00,647,weatherlink.com 1.10,2013-06-22 19:02:00,
2013-06-22 15:17:00,81.9,66.0,30.28,SE,128,0.0,1.0,58,0.00,,,0.00,782,weatherlink.com 1.10,2013-06-22 19:17:00,
2013-06-22 15:32:00,81.8,62.0,30.26,South,181,2.0,3.0,52,0.00,,,0.00,675,weatherlink.com 1.10,2013-06-22 19:32:00,
2013-06-22 15:47:00,82.0,64.0,30.25,NNE,15,0.0,1.0,55,0.00,,,0.00,587,weatherlink.com 1.10,2013-06-22 19:47:00,
2013-06-22 16:02:00,80.5,65.0,30.25,East,84,0.0,2.0,59,0.00,,,0.00,364,weatherlink.com 1.10,2013-06-22 20:02:00,
2013-06-22 16:17:00,80.7,63.0,30.25,NNE,13,0.0,2.0,55,0.00,,,0.00,406,weatherlink.com 1.10,2013-06-22 20:17:00,
2013-06-22 16:32:00,80.3,63.0,30.24,NW,307,0.0,3.0,56,0.00,,,0.00,475,weatherlink.com 1.10,2013-06-22 20:32:00,
2013-06-22 16:47:00,78.9,65.0,30.24,NW,310,0.0,3.0,62,0.00,,,0.00,181,weatherlink.com 1.10,2013-06-22 20:47:00,
2013-06-22 17:02:00,78.2,64.0,30.24,NNE,32,0.0,1.0,62,0.00,,,0.00,137,weatherlink.com 1.10,2013-06-22 21:02:00,
2013-06-22 17:17:00,76.8,65.0,30.24,NW,318,0.0,0.0,68,0.00,,,0.00,120,weatherlink.com 1.10,2013-06-22 21:17:00,
2013-06-22 17:32:00,76.5,65.0,30.23,ESE,103,0.0,1.0,67,0.00,,,0.00,146,weatherlink.com 1.10,2013-06-22 21:32:00,
2013-06-22 17:47:00,76.1,64.0,30.23,NNW,342,0.0,1.0,66,0.00,,,0.00,114,weatherlink.com 1.10,2013-06-22 21:47:00,
2013-06-22 18:02:00,74.8,64.0,30.23,SE,135,0.0,0.0,70,0.00,,,0.00,97,weatherlink.com 1.10,2013-06-22 22:02:00,
2013-06-22 18:17:00,74.0,63.0,30.23,SE,126,0.0,2.0,69,0.00,,,0.00,91,weatherlink.com 1.10,2013-06-22 22:17:00,
2013-06-22 18:32:00,73.2,63.0,30.23,NNE,12,0.0,1.0,70,0.00,,,0.00,107,weatherlink.com 1.10,2013-06-22 22:32:00,
2013-06-22 18:47:00,73.3,62.0,30.22,West,266,0.0,2.0,68,0.00,,,0.00,86,weatherlink.com 1.10,2013-06-22 22:47:00,
2013-06-22 19:02:00,72.6,61.0,30.22,South,169,0.0,1.0,68,0.00,,,0.00,60,weatherlink.com 1.10,2013-06-22 23:02:00,
2013-06-22 19:17:00,72.1,61.0,30.23,East,98,0.0,3.0,68,0.00,,,0.00,40,weatherlink.com 1.10,2013-06-22 23:17:00,
2013-06-22 19:32:00,71.0,61.0,30.23,East,90,0.0,0.0,70,0.00,,,0.00,33,weatherlink.com 1.10,2013-06-22 23:32:00,
2013-06-22 19:47:00,70.9,61.0,30.23,South,175,0.0,1.0,70,0.00,,,0.00,21,weatherlink.com 1.10,2013-06-22 23:47:00,
2013-06-22 20:02:00,70.3,60.0,30.23,SW,223,0.0,2.0,69,0.00,,,0.00,12,weatherlink.com 1.10,2013-06-23 00:02:00,
2013-06-22 20:17:00,69.4,60.0,30.23,NW,312,0.0,0.0,72,0.00,,,0.00,7,weatherlink.com 1.10,2013-06-23 00:17:00,
2013-06-22 20:32:00,69.1,59.0,30.23,NW,309,0.0,0.0,70,0.00,,,0.00,0,weatherlink.com 1.10,2013-06-23 00:32:00,
2013-06-22 20:47:00,68.5,59.0,30.23,WSW,254,0.0,0.0,71,0.00,,,0.00,0,weatherlink.com 1.10,2013-06-23 00:47:00,
2013-06-22 21:02:00,67.7,58.0,30.24,West,263,0.0,0.0,72,0.00,,,0.00,0,weatherlink.com 1.10,2013-06-23 01:02:00,
2013-06-22 21:17:00,67.4,58.0,30.24,NNW,327,0.0,1.0,72,0.00,,,0.00,0,weatherlink.com 1.10,2013-06-23 01:17:00,
2013-06-22 21:32:00,67.0,57.0,30.25,NNW,327,0.0,0.0,71,0.00,,,0.00,0,weatherlink.com 1.10,2013-06-23 01:32:00,
2013-06-22 21:47:00,66.4,58.0,30.26,NNW,327,0.0,0.0,73,0.00,,,0.00,0,weatherlink.com 1.10,2013-06-23 01:47:00,
2013-06-22 22:02:00,66.2,57.0,30.26,West,280,0.0,0.0,73,0.00,,,0.00,0,weatherlink.com 1.10,2013-06-23 02:02:00,
2013-06-22 22:17:00,65.3,57.0,30.26,West,280,0.0,0.0,74,0.00,,,0.00,0,weatherlink.com 1.10,2013-06-23 02:17:00,
2013-06-22 22:32:00,65.9,57.0,30.26,West,280,0.0,0.0,74,0.00,,,0.00,0,weatherlink.com 1.10,2013-06-23 02:32:00,
2013-06-22 22:47:00,65.4,57.0,30.26,West,280,0.0,0.0,74,0.00,,,0.00,0,weatherlink.com 1.10,2013-06-23 02:47:00,
2013-06-22 23:02:00,65.1,57.0,30.26,West,280,0.0,0.0,75,0.00,,,0.00,0,weatherlink.com 1.10,2013-06-23 03:02:00,
2013-06-22 23:17:00,64.7,57.0,30.27,West,280,0.0,0.0,76,0.00,,,0.00,0,weatherlink.com 1.10,2013-06-23 03:17:00,
2013-06-22 23:32:00,64.4,57.0,30.27,West,280,0.0,0.0,77,0.00,,,0.00,0,weatherlink.com 1.10,2013-06-23 03:32:00,
2013-06-22 23:47:00,64.2,57.0,30.27,West,280,0.0,0.0,77,0.00,,,0.00,0,weatherlink.com 1.10,2013-06-23 03:47:00,